Seitenende
  ETA
Vessel
Container No.
Shipping Company
Warehouse Date
Date of Removal
Status
1 28.06.2018 Nyk Altair  TCLU 264 637-0 ONE 00.00.0000 00.00.0000 Im Zulauf
2 25.06.2018 Beijing Bridge  SZLU 965 389-0 Hyundai 00.00.0000 00.00.0000 Im Zulauf
3 22.06.2018 YM Wind  CAIU 303 922-4 Yang Ming 00.00.0000 00.00.0000 Im Zulauf
4 21.06.2018 Cosco Spain  EITU 052 168-2 EMC 00.00.0000 00.00.0000 Im Zulauf
5 21.06.2018 Nyk Arcadia  KKTU 822 429-4 ONE 22.06.2018 25.06.2018 Bestand
6 20.06.2018 MSC Francesca  CAXU 329 314-3   22.06.2018 22.06.2018 Bestand
7 19.06.2018 Sydney Trader  BMOU 940 190-0 Hyundai 21.06.2018 25.06.2018  
8 19.06.2018 Maersk Guyaquil  SUDU 747 335-0 Hamburg Süd 21.06.2018 21.06.2018 Bestand
9 19.06.2018 Maersk Guyaquil  SUDU 778 761-1 Hamburg Süd 21.06.2018 21.06.2018 Bestand
10 15.06.2018 Nyk Crane  BEAU 262 293-1 Yang Ming 20.06.2018 20.06.2018 Bestand
11 15.06.2018 Nyk Virgo  CRXU 115 594-9 ONE 19.06.2018 20.06.2018 Bestand
12 14.06.2018 CMA CGM Marco Polo  TEMU 956 074-2 Cosco 19.06.2018 20.06.2018 Bestand
13 12.06.2018 Maersk Gibraltar  SUDU 190 798-9 Maersk 13.06.2018 14.06.2018 Bestand
14 11.06.2018 Al Mashrab  BSIU 226 261-9 Hapag Lloyd 14.06.2018 14.06.2018 Bestand
15 08.06.2018 Nyk Eagle  YMLU 328 148-2 Yang Ming 14.06.2018 15.06.2018 Bestand
16 07.06.2018 CMA CGM Antoine De Saint Exupery  CXRU 102 546-2 Cosco 11.06.2018 12.06.2018 Bestand
17 05.06.2018 Maersk Guatemala  HASU 412 585-1 Maerk 06.06.2018 07.06.2018 Bestand
18 04.06.2018 Linah  AMFU 317 545-4 Hapag 05.06.2018 06.06.2018 Bestand
19 31.05.2018 Nyk Vega  NYKU 976 416-4 ONE 04.06.2018 04.06.2018 Bestand
20 31.05.2018 CMA CGM Zheng He  CXRU 149 222-0 Cosco 05.06.2018 06.06.2018 Bestand
21 31.05.2018 Cosco Shipping Leo  TEMU 536 463-3 CMA CGM 04.06.2018 05.06.2018 Bestand
22 31.05.2018 Cosco Shipping Leo  SZLU 938 885-7 Cosco 04.06.2018 05.06.2018 Bestand
23 29.05.2018 Maersk Stadelhorn  SUDU 739 927-3 Hamburg Süd 31.05.2018 31.05.2018 Bestand
24 29.05.2018 Maersk Stadelhorn  TCLU 541 702-1 Hamburg Süd 01.06.2018 04.06.2018 Bestand
25 26.05.2018 Cosco Shipping Taurus  EISU 388 239-2 Evergreem 29.05.2018 30.05.2018 Bestand
26 25.05.2018 Bernadette  CXRU 124 215-4 Hyundai 30.05.2018 30.05.2018 Bestand
27 25.05.2018 MSC Oliver  RJCU 202 134-5 Maersk 29.05.2018 30.05.2018 Bestand
28 25.05.2018 YM Worth  TEMU 561 004-3 Yang Ming 31.05.2018 31.05.2018 Bestand
29 24.05.2018 Nyk Olympus  NYKU 355 869-6 ONE 30.05.2018 31.05.2018 Bestand
30 24.05.2018 CMA CGM Kerguelen  SEGU 948 571-9 Cosco 28.05.2018 29.05.2018 Bestand
31 20.05.2018 Al Nasriyah  AMFU 315 186-9 Hapag Lloyd 23.05.2018 24.05.2018 Bestand
32 18.05.2018 Nyk Falcon  YMLU 532 475-2 Yang Ming 23.05.2018 24.05.2018 Bestand
33 17.05.2018 Nyk Orpheus  NYKU 990 532-3 ONE 22.05.2018 23.05.2018 Bestand
34 17.05.2018 CMA CGM Benjamin Franklin  CXRU 150 853-7 Cosco 22.05.2018 23.05.2018 bestand
35 15.05.2018 Dali  SUDU 898 224-3 HH-Süd 18.05.2018 22.05.2018 Bestand
36 11.05.2018 Hyundai Forward  HDMU 558 640-5 Hyundai 15.05.2018 16.05.2018 Bestand
37 10.05.2018 Nyk Adonis  TCNU 303 435-5   16.05.2018 17.05.2018 Bestand
38 10.05.2018 Cosco Shipping Aries  CGMU 492 569-7 CMA CGM 15.05.2018 15.05.2018 Bestand
39 08.05.2018 Maersk Sarat  HASU 505 585-1 Hamburg Süd 17.05.2018 18.05.2018 Bestand
40 08.05.2018 Maersk Sarat  MRKU 851 396-0   14.05.2018 14.05.2018 Bestand
41 06.05.2018 CSCL Venus  TEMU 490 999-7 CMA CGM 08.05.2018 08.05.2018 Bestand
42 06.05.2018 Al Dhail  TLLU 106 553-2 Nyk 09.05.2018 09.05.2018 Bestand
43 05.05.2018 Milan Maersk  RJCU 202 130-3 Maersk 08.05.2018 08.05.2018 Bestand
44 04.05.2018 CMA CGM Georg Forster  CXRU 134 322-6 Cosco 09.05.2018 11.05.2018 Bestand
45 04.05.2018 YM Witness  CAIU 317 656-7 Yang Ming 08.05.2018 09.05.2018 Bestand
46 04.05.2018 YM Witness  SZLU 982 883-2 Yang Ming 08.05.2018 09.05.2018 Bestand
47 04.05.2018 CMA CGM Georg Forster  CCLU 861 467-1 Cosco 09.05.2018 11.05.2018 Bestand
48 03.05.2018 Nyk Vesta  NYKU 361 425-4 Nyk 08.05.2018 08.05.2018 Bestand
49 28.04.2018 Nyk Oceanus  NYKU 370 151-2 Nyk 02.05.2018 03.05.2018 Bestand
50 28.04.2018 Umm Qarn  TCLU 203 413-7 Nyk 30.04.2018 30.04.2018 Bestand
51 27.04.2018 Cosco Italy  TGCU 004 966-9 CMA CGM 30.04.2018 30.04.2018 Bestand
52 26.04.2018 CMA CGM Jules Verne  CBHU 281 803-0 Cosco 27.04.2018 27.04.2018 Bestand
53 25.04.2018 Adamastos  MSKU 316 834-9 Maersk 26.04.2018 26.04.2018 Bestand
54 25.04.2018 Adamastos  MRKU 697 593-3 Hamburg Süd 26.04.2018 27.04.2018 Bestand
55 25.04.2018 Adamastos  SUDU 737 100-2 Hamburg Süd 26.04.2018 26.04.2018 Bestand
56 19.04.2018 CMA CGM Magellan  SZLU 967 876-9 Cosco 20.04.2018 23.04.2018 Bestand
57 19.04.2018 Nyk Altair  TRIU 806 253-1 Nyk 23.04.2018 24.04.2018 Bestand
58 19.04.2018 Cosco Shipping Alps  FCIU 354 993-0 CMA CGM 23.04.2018 24.04.2018 Bestand
59 19.04.2018 YM Wellhead  BEAU 237 282-7 Yang Ming 23.04.2018 24.04.2018 Bestand
60 18.04.2018 San Francisca  SUDU 681 692-1 Hamburg Süd 19.04.2018 20.04.2018 Bestand
61 18.04.2018 San Francisca  MSKU 512 959-4 Hamburg Süd 20.04.2018 20.04.2018 Bestand
62 14.04.2018 YM Wind  BEAU 247 434-6 Yang Ming 17.04.2018 17.04.2018 Bestand
63 12.04.2018 APL Changi  BMOU 950 758-0 Cosco 16.04.2018 16.04.2018 Bestand
64 12.04.2018 Nyk Arcadia  NYKU 980 845-2 Nyk 16.04.2018 16.11.2018 Bestand
65 11.04.2018 San Felix  SUDU 789 530-8 Hamburg Süd 12.04.2018 12.04.2018 Bestand
66 11.04.2018 San Felix  TCKU 247 358-0 Hamburg Süd 12.04.2018 12.04.2018 Bestand
67 11.04.2018 MSC Fabiola  BSIU 285 663-1 MSC 11.04.2018 12.04.2018 Bestand
68 11.04.2018 San Felix  FCIU 427 062-1 Hamburg Süd 12.04.2018 12.04.2018 Bestand
69 05.04.2018 Nyk Virgo  NYKU 344 585-3   06.04.2018 09.04.2018 Bestand
70 05.04.2018 CC Vasco De Gama  TEMU 916 118-8 Cosco 09.04.2018 10.04.2018 Bestand
71 03.04.2018 Mol Treasure  TEMU 170 572-6 Yang Ming 04.04.2018 04.04.2018 Bestand
72 02.04.2018 MSC Filomena  TCKU 325 901-7 Karl Geuther 04.04.2018 05.04.2018 Bestand
73 01.04.2018 CMA CGM Amazon  SUDU 760 579-6 Hamburg Süd 03.04.2018 04.04.2018 Bestand
74 01.04.2018 CMA CGM Amazon  SUDU 135 399-5 Hamburg Süd 03.04.2018 04.04.2018 Bestand
75 29.03.2018 Nyk Venus  SEGU 911 065-1 Nyk 05.04.2018 05.04.2018 Bestand
76 24.03.2018 Cosco Netherlands  CMAU 098 445-6 CMA CGM 26.03.2018 26.03.2018 Bestand
77 24.03.2018 Cosco Netherlands  CGMU 535 382-6 CMA CGM 27.03.2018 28.03.2018 Bestand
78 24.03.2018 Nyk Vega  NYKU 326 603-5 Nyk 27.03.2018 27.03.2018 Bestand
79 24.03.2018 Cosco Netherlands  UNDU 254 103-9 Evergreen 26.03.2018 26.03.2018 Bestand
80 21.03.2018 Athenian  SUDU 755 375-3 Hamburg Süd 22.03.2018 23.03.2018 Bestand
81 21.03.2018 Athenian  SUDU 773 909-6 Hamburg Süd 22.03.2018 22.03.2018 Bestand
82 16.03.2018 Cosco Portugal  TRIU 816 138-6 CMA CGM 19.03.2018 20.03.2018 Bestand
83 15.03.2018 Nyk Olympus  NYKU 975 060-2 Nyk 20.03.2018 20.03.2018 Bestand
84 15.03.2018 CC A D Saint Exupery  TEMU 906 275-5 Cosco 17.03.2018 20.03.2018 Bestand
85 15.03.2018 CCNI Arauco  SUDU 197 402-0 Hamburg Süd 16.03.2018 16.03.2018 Bestand
86 15.03.2018 CCNI Arauco  SUDU 190 067-0 Hamburg Süd 16.03.2018 16.03.2018 Bestand
87 15.03.2018 CCNI Arauco  NYKU 341 568-0 Nyk 16.03.2018 16.03.2018 Bestand
88 15.03.2018 CC A D Saint Exupery  CXRU 136 933-9 Cosco 16.03.2018 19.03.2018 Bestand
89 09.03.2018 Al Murabba  NYKU 344 886-8 Nyk 12.03.2018 13.03.2018 Bestand
90 09.03.2018 YM Worth  NYKU 713 880-8 Nyk 13.03.2018 14.03.2018 Bestand
91 08.03.2018 Nyk Orpheus  NYKU 383 333-4 Nyk 12.03.2018 13.03.2018 Bestand
92 08.03.2018 CMA CGM Zheng He  TTNU 819 913-4 Cosco 13.03.2018 14.03.2018 Bestand
93 07.03.2018 Express Rome  HASU 120 203-9 Hamburg Süd 14.03.2018 15.03.2018 Bestand
94 07.03.2018 Express Rome  FCIU 453 848-4 Nyk 14.03.2018 15.03.2018 Bestand
95 04.03.2018 Nyk Falcon  TCLU 135 482-0 Nyk 08.03.2018 09.03.2018 Bestand
96 02.03.2018 Nyk Adonis  SZLU 908 184-0 Nyk 05.03.2018 06.03.2018 Bestand
97 02.03.2018 Cosco Denmark  CBHU 353 436-2 Cosco 05.03.2018 06.03.2018 Bestand
98 01.03.2018 Tempanos  SUDU 187 125-3 Hamburg Süd 06.03.2018 06.03.2018 Bestand
99 01.03.2018 Tempanos  SUDU 133 203-5 Hamburg Süd 06.03.2018 06.03.2018 Bestand
100 01.03.2018 Tempanos  HASU 109 329-9 Hamburg Süd 06.03.2018 07.03.2018 Bestand

Seitenanfang